Vertical_Velocity
1 1 -0 -0 -1 -0 -1 -1 -2 -1 -1 -2 -3 -2 -1 -1 -5 1 -6 -5 -6 -5
1 -0 0 0 1 -0 1 1 -0 0 -3 -4 -4 -3 -2 -2 -4 -4 -7 -4 -3 -4
1 0 -1 1 2 0 2 -0 -0 -1 -1 -2 -2 -2 -3 -4 -3 1 -2 -4 -3 -4
1 -0 -1 0 2 2 -2 -2 -2 -0 -1 -1 -1 -4 -2 -1 0 -1 1 -5 -5 -1
1 0 1 3 1 -0 -2 -1 -1 -2 -1 -2 -3 -1 -0 1 -4 -3 -1 -3 -3 -7
1 1 5 1 1 0 0 -2 -3 -1 -2 -2 -2 -2 -5 -7 -2 -2 -5 -7 -5 -0
3 2 1 1 0 0 -0 -1 -2 -3 -1 -4 -3 -4 -1 -3 -3 -3 -10 -7 -5 -4
1 -0 1 2 -1 -1 -1 0 -1 -2 -3 -5 -7 0 -2 -6 -4 -3 -0 -1 -1 0
0 3 1 -0 -1 2 0 -2 -2 -3 1 -3 -8 -2 -6 -10 -1 -5 -4 -2 -0 -4
1 2 1 1 2 -0 -0 -0 -2 -5 -0 -3 -8 -0 -2 -5 -4 -4 -3 -6 -1 -1
7 3 4 5 2 3 -0 -4 -2 -6 -5 3 -9 -4 -7 -5 -2 -5 -3 -2 -1 -7
3 3 3 2 0 -1 -5 -1 -2 -0 -1 -2 -5 -8 -4 -7 -7 -3 -3 1 1 -0
3 0 1 0 -3 -3 -0 -0 3 -6 -5 -7 -0 -4 -2 -7 -6 -7 -2 -0 -1 6
1 1 0 -1 -2 -2 0 1 2 -3 -9 -3 -4 0 -2 -4 -8 -9 -1 0 3 4
Height
5679 5678 5676 5674 5672 5670 5667 5663 5660 5655 5651 5648 5644 5640 5636 5630 5624 5620 5613 5606 5600 5594
5665 5664 5662 5660 5657 5655 5651 5648 5644 5640 5635 5631 5626 5622 5617 5612 5606 5601 5594 5588 5581 5573
5650 5648 5647 5644 5642 5639 5635 5631 5627 5623 5618 5614 5609 5605 5600 5595 5589 5583 5575 5568 5561 5551
5635 5633 5631 5629 5626 5622 5618 5614 5610 5605 5600 5596 5592 5587 5583 5577 5572 5566 5557 5548 5540 5530
5619 5617 5616 5614 5610 5605 5601 5597 5592 5588 5583 5579 5575 5571 5567 5561 5553 5546 5537 5528 5519 5507
5604 5602 5600 5596 5593 5589 5584 5579 5575 5571 5567 5563 5559 5555 5549 5543 5535 5527 5517 5507 5495 5483
5588 5585 5582 5579 5576 5572 5568 5563 5559 5556 5552 5548 5543 5538 5531 5524 5516 5507 5497 5483 5471 5460
5570 5568 5566 5563 5559 5556 5551 5547 5544 5541 5536 5530 5527 5520 5512 5505 5498 5487 5476 5463 5451 5439
5553 5552 5549 5546 5543 5539 5536 5533 5528 5524 5519 5511 5507 5500 5492 5486 5477 5465 5454 5443 5431 5418
5536 5534 5532 5530 5527 5524 5521 5516 5511 5507 5502 5494 5489 5482 5473 5465 5456 5446 5434 5424 5413 5402
5519 5517 5515 5514 5513 5510 5506 5501 5495 5490 5484 5476 5469 5463 5454 5445 5436 5427 5417 5406 5394 5384
5504 5504 5503 5501 5498 5495 5490 5486 5479 5473 5466 5460 5451 5443 5434 5426 5421 5411 5400 5388 5378 5370
5491 5491 5490 5488 5485 5480 5476 5470 5464 5456 5451 5444 5435 5426 5418 5410 5402 5395 5384 5374 5365 5359
5478 5477 5476 5473 5469 5465 5460 5455 5449 5443 5434 5427 5421 5413 5406 5396 5386 5376 5369 5360 5355 5348